Regional Weather Roundup
Issued by NWS

Home | Current Version | Previous Version | Text Only | Print | Product List | Glossary Off
Versions: 1 2 3 4 5 6 7 8 9 10 11 12 13 14 15 16 17 18 19 20 21 22 23 24 25 26 27 28 29 30 31 32 33 34 35 36 37 38 39 40 41 42 43 44 45 46 47 48 49 50

000
ASUS43 KDTX 210510
RWRMI
MICHIGAN HOURLY REGIONAL WEATHER ROUNDUP
NATIONAL WEATHER SERVICE DETROIT/PONTIAC MI
1200 AM EST TUE FEB 21 2017

NOTE: "FAIR" INDICATES FEW OR NO CLOUDS BELOW 12,000 FEET WITH NO
SIGNIFICANT WEATHER AND/OR OBSTRUCTION TO VISIBILITY.

MIZ047>049-052>055-059>063-066>070-074>076-081>083-210600-
SOUTHEAST LOWER MICHIGAN

CITY           SKY/WX    TMP DP  RH WIND       PRES   REMARKS
ADRIAN         CLOUDY    36  32  85 E6        30.10F WCI  31
ALMA           CLOUDY    41  32  69 SE10      30.03F
ANN ARBOR      CLOUDY    37  29  72 NE6       30.11F WCI  32
BAD AXE        CLOUDY    38  31  76 SE8       30.08F WCI  32
CARO           CLOUDY    39  27  61 SE10G17   30.07F WCI  33
DETROIT CITY   CLOUDY    37  30  75 SE7       30.14F WCI  32
DETROIT        CLOUDY    39  29  67 E5        30.13F
FLINT          CLOUDY    40  28  62 SE14      30.08F WCI  32
GROSSE ILE     CLOUDY    39  31  71 E5        30.12R
HILLSDALE      CLOUDY    37  32  81 SE9       30.04F WCI  31
HOWELL         CLOUDY    39  29  67 SE12      30.07F WCI  32

CITY           SKY/WX    TMP DP  RH WIND       PRES   REMARKS
JACKSON        CLOUDY    39  30  70 SE12      30.05F WCI  32
LAMBERTVILLE   PTCLDY    38  33  82 E5        30.09F WCI  34
LANSING        MOCLDY    43  30  60 SE13      30.04F
LAPEER         FAIR      39  28  66 S10G16    30.11F WCI  32
MASON          CLOUDY    40  32  73 SE9       30.05F WCI  35
MONROE         PTCLDY    37  33  86 E5        30.11F WCI  33
MT. CLEMENS    CLOUDY    35  31  87 SE6       30.12F WCI  30
PONTIAC        CLOUDY    38  28  67 SE10      30.11F WCI  31
PORT HOPE        N/A     36  27  69 SE14G22   30.07F WCI  27
PORT HURON     CLOUDY    39  28  65 SE8       30.13F WCI  34
TRI CITIES     CLOUDY    41  32  70 SE10      30.05F
MIDLAND        FAIR      42  29  60 SE9       30.04F
TROY           CLOUDY    39  27  62 E5        30.15S
SAGINAW HB     CLOUDY    39  30  70 SE10      30.06S WCI  32
$$
MIZ043>046-050>051-056>058-064>065-071>073-077>080-210600-
SOUTHWEST LOWER MICHIGAN

CITY           SKY/WX    TMP DP  RH WIND       PRES   REMARKS
BATTLE CREEK   CLOUDY    45  34  65 SE10      30.01F
BENTON HARBOR  CLOUDY    53  40  61 SE10      29.96F
BIG RAPIDS     CLOUDY    45  33  62 SE8       29.97F
COLDWATER      CLOUDY    42  33  71 SE9       30.03F
FREMONT        MOCLDY    49  32  51 SE10      29.96F
HOLLAND        CLOUDY    52  37  56 SE14      29.97F
GRAND RAPIDS   CLOUDY    47  33  58 SE8       29.99F
IONIA          FAIR      42  32  67 SE9       30.00F
KALAMAZOO      MOCLDY    47  34  60 SE10G20   30.00F
LUDINGTON      CLOUDY    53  37  55 SE16G23   29.89F
MARSHALL       CLOUDY    42  32  67 SE10      30.03F
MOUNT PLEASANT CLOUDY    40  32  71 SE8       30.02F WCI  35
MUSKEGON       CLOUDY    52  37  56 SE13      29.95F
SOUTH HAVEN    MOCLDY    51  39  63 S9        29.98R
$$
MIZ016>042-210600-
NORTHERN LOWER MICHIGAN

CITY           SKY/WX    TMP DP  RH WIND       PRES   REMARKS
ALPENA         CLOUDY    37  34  89 SE6       30.04F WCI  32
BEAVER ISLAND  LGT RAIN  39  35  87 SE13G18   29.90F WCI  31
BELLAIRE       CLOUDY    45  32  61 S10       29.92F
CADILLAC       CLOUDY    43  32  66 SE9       29.95F
CHARLEVOIX     CLOUDY    44  34  66 SE12G18   29.92F
FRANKFORT      CLOUDY    52  37  56 SE18G31   29.86F
GAYLORD        CLOUDY    41  30  65 S17G25    29.94F
GRAYLING       CLOUDY    40  32  75 SE14      29.99F WCI  32
HARBOR SPRINGS CLOUDY    39  32  76 E7        29.95F WCI  34
HOUGHTON LAKE  CLOUDY    40  31  70 SE12      30.01S WCI  33
MANISTEE       CLOUDY    52  35  52 SE12G20   29.88F
OSCODA         CLOUDY    39  33  78 S15       30.05F WCI  30
PELLSTON       CLOUDY    37  31  78 SE8       29.96F WCI  31
ROGERS CITY    CLOUDY    38  32  78 SE10G17   30.03F WCI  32
TRAVERSE CITY  CLOUDY    47  33  58 S9        29.90F
$$
MIZ007>008-015-210600-
EASTERN UPPER MICHIGAN

CITY           SKY/WX    TMP DP  RH WIND       PRES   REMARKS
KINROSS        CLOUDY    36  30  79 SE23      29.97F WCI  24
MACKINAC ISLAN CLOUDY    35  31  87 E12       29.97S WCI  26
NEWBERRY       LGT RAIN  34  33  96 SE13      29.88F WCI  25
S. S. MARIE    CLOUDY    33  22  63 SE14G23   29.99F WCI  23
MUNISING         N/A     40  37  89 S15G28    29.79F WCI  32
$$
MIZ004>006-011>014-085-210600-
CENTRAL UPPER MICHIGAN

CITY           SKY/WX    TMP DP  RH WIND       PRES   REMARKS
MANISTIQUE     LGT SNOW  35  35  98 SE14G20   29.86F WCI  26
ESCANABA       LGT RAIN  40  37  89 S8        29.82F WCI  34
MENOMINEE      LGT RAIN  46  42  86 S15G28    29.82R
SAWYER-GWINN   RAIN      38  37  95 S17G26    29.79R WCI  28
$$
MIZ001>003-009>011-084-210600-
WESTERN UPPER MICHIGAN

CITY           SKY/WX    TMP DP  RH WIND       PRES   REMARKS
IRON MOUNTAIN  LGT RAIN  43  40  89 S9        29.76F FOG
HOUGHTON       CLOUDY    43  39  86 S16       29.61F
COPPER HARBOR    N/A     40  38  93 SW15G26   29.64F WCI  32
IRONWOOD       LGT RAIN  49  47  93 S13       29.61F
$$

ABBREVIATIONS USED IN REMARKS
   TC - TEMPERATURE IN CELSIUS
  WCI - WIND CHILL INDEX
   HX - HEAT INDEX
  VSB - VISIBILITY





USA.gov is the U.S. government's official web portal to all federal, state and local government web resources and services.